| time (UTC) | temp F | wind direction | speed MPH | gust MPH | rain 1hr in | rain 24hr in | rain mn in | humidity % | barometer mb |
| 20260904173229 | 85 | 188 | 0.0 | 2.0 | 0.00 | 0.00 | 0.00 | 55 | 1014.7 |
| 20260904171729 | 88 | 188 | 1.0 | 2.0 | 0.00 | 0.00 | 0.00 | 49 | 1014.7 |
| 20260904170238 | 91 | 188 | 1.0 | 3.0 | 0.00 | 0.00 | 0.00 | 42 | 1014.8 |
| 20260904164734 | 92 | 188 | 2.0 | 3.0 | 0.00 | 0.00 | 0.00 | 40 | 1014.9 |
| 20260904163224 | 92 | 232 | 1.0 | 4.0 | 0.00 | 0.00 | 0.00 | 39 | 1014.8 |
| 20260904161731 | 92 | 232 | 2.0 | 4.0 | 0.00 | 0.00 | 0.00 | 37 | 1014.9 |
| 20260904160227 | 92 | 225 | 3.0 | 6.0 | 0.00 | 0.00 | 0.00 | 38 | 1014.9 |
| 20260904154722 | 91 | 168 | 3.0 | 5.0 | 0.00 | 0.00 | 0.00 | 38 | 1015.1 |
| 20260904153224 | 91 | 313 | 1.0 | 4.0 | 0.00 | 0.00 | 0.00 | 40 | 1015.2 |
| 20260904151727 | 90 | 212 | 2.0 | 4.0 | 0.00 | 0.00 | 0.00 | 42 | 1015.3 |
| 20260904150229 | 90 | 291 | 2.0 | 3.0 | 0.00 | 0.00 | 0.00 | 45 | 1015.4 |
| 20260904144727 | 90 | 291 | 0.0 | 4.0 | 0.00 | 0.00 | 0.00 | 44 | 1015.5 |
| 20260904143233 | 90 | 138 | 1.0 | 4.0 | 0.00 | 0.00 | 0.00 | 44 | 1015.5 |
| 20260904141734 | 89 | 140 | 4.0 | 7.0 | 0.00 | 0.00 | 0.00 | 44 | 1015.8 |
| 20260904140222 | 89 | 282 | 2.0 | 5.0 | 0.00 | 0.00 | 0.00 | 44 | 1015.9 |
| 20260904134728 | 89 | 213 | 3.0 | 5.0 | 0.00 | 0.00 | 0.00 | 45 | 1016.0 |
| 20260904133225 | 89 | 77 | 4.0 | 6.0 | 0.00 | 0.00 | 0.00 | 46 | 1016.1 |
| 20260904131735 | 89 | 90 | 2.0 | 9.0 | 0.00 | 0.00 | 0.00 | 45 | 1016.3 |
| 20260904130222 | 89 | 159 | 3.0 | 8.0 | 0.00 | 0.00 | 0.00 | 46 | 1016.4 |
| 20260904124736 | 89 | 236 | 2.0 | 7.0 | 0.00 | 0.00 | 0.00 | 47 | 1016.6 |
| 20260904123228 | 89 | 178 | 4.0 | 6.0 | 0.00 | 0.00 | 0.00 | 48 | 1016.7 |
| 20260904121721 | 89 | 75 | 1.0 | 4.0 | 0.00 | 0.00 | 0.00 | 47 | 1016.8 |
| 20260904120234 | 89 | 171 | 4.0 | 5.0 | 0.00 | 0.00 | 0.00 | 46 | 1017.0 |
| 20260904114735 | 90 | 217 | 3.0 | 5.0 | 0.00 | 0.00 | 0.00 | 47 | 1017.1 |
| 20260904113235 | 89 | 348 | 3.0 | 6.0 | 0.00 | 0.00 | 0.00 | 44 | 1017.2 |
| 20260904111823 | 89 | 151 | 2.0 | 6.0 | 0.00 | 0.00 | 0.00 | 48 | 1017.3 |
| 20260904110315 | 88 | 111 | 2.0 | 4.0 | 0.00 | 0.00 | 0.00 | 51 | 1017.4 |
| 20260904104824 | 88 | 186 | 1.0 | 6.0 | 0.00 | 0.00 | 0.00 | 51 | 1017.5 |
| 20260904103312 | 87 | 63 | 2.0 | 4.0 | 0.00 | 0.00 | 0.00 | 49 | 1017.7 |
| 20260904101826 | 87 | 205 | 2.0 | 4.0 | 0.00 | 0.00 | 0.00 | 53 | 1017.8 |
| 20260904100327 | 87 | 79 | 1.0 | 3.0 | 0.00 | 0.00 | 0.00 | 52 | 1018.0 |
| 20260904094815 | 86 | 127 | 2.0 | 6.0 | 0.00 | 0.00 | 0.00 | 54 | 1018.2 |
| 20260904093327 | 85 | 145 | 1.0 | 5.0 | 0.00 | 0.00 | 0.00 | 54 | 1018.3 |
| 20260904091816 | 85 | 108 | 3.0 | 6.0 | 0.00 | 0.00 | 0.00 | 53 | 1018.3 |
| 20260904090321 | 85 | 86 | 2.0 | 4.0 | 0.00 | 0.00 | 0.00 | 52 | 1018.3 |
| 20260904084827 | 86 | 248 | 2.0 | 5.0 | 0.00 | 0.00 | 0.00 | 55 | 1018.3 |
| 20260904083313 | 85 | 195 | 1.0 | 4.0 | 0.00 | 0.00 | 0.00 | 55 | 1018.3 |
| 20260904081823 | 84 | 146 | 2.0 | 5.0 | 0.00 | 0.00 | 0.00 | 58 | 1018.3 |
| 20260904080315 | 84 | 155 | 2.0 | 6.0 | 0.00 | 0.00 | 0.00 | 54 | 1018.3 |
| 20260904074825 | 81 | 326 | 1.0 | 2.0 | 0.00 | 0.00 | 0.00 | 63 | 1018.2 |
| 20260904073312 | 80 | 325 | 2.0 | 2.0 | 0.00 | 0.00 | 0.00 | 63 | 1018.1 |
| 20260904071826 | 79 | 324 | 2.0 | 3.0 | 0.00 | 0.00 | 0.00 | 64 | 1018.2 |
| 20260904070315 | 79 | 331 | 2.0 | 3.0 | 0.00 | 0.00 | 0.00 | 63 | 1017.9 |
| 20260904064821 | 79 | 31 | 1.0 | 4.0 | 0.00 | 0.00 | 0.00 | 65 | 1017.9 |
| 20260904063312 | 76 | 273 | 0.0 | 0.0 | 0.00 | 0.00 | 0.00 | 76 | 1017.9 |
| 20260904061818 | 73 | 273 | 0.0 | 0.0 | 0.00 | 0.00 | 0.00 | 76 | 1018.0 |
| 20260904060314 | 68 | 273 | 0.0 | 0.0 | 0.00 | 0.00 | 0.00 | 87 | 1017.8 |
| 20260904054824 | 66 | 272 | 0.0 | 0.0 | 0.00 | 0.00 | 0.00 | 94 | 1017.9 |
| 20260904053313 | 63 | 272 | 0.0 | 0.0 | 0.00 | 0.00 | 0.00 | 94 | 1017.9 |
| 20260904051825 | 61 | 273 | 0.0 | 0.0 | 0.00 | 0.00 | 0.00 | 93 | 1017.6 |
| 20260904050309 | 61 | 273 | 0.0 | 0.0 | 0.00 | 0.00 | 0.00 | 93 | 1017.5 |
| 20260904044820 | 61 | 273 | 0.0 | 0.0 | 0.00 | 0.00 | 0.00 | 93 | 1017.4 |
| 20260904043312 | 61 | 273 | 0.0 | 0.0 | 0.00 | 0.00 | 0.00 | 93 | 1017.4 |
| 20260904041823 | 61 | 272 | 0.0 | 0.0 | 0.00 | 0.00 | 0.00 | 93 | 1017.3 |
| 20260904040310 | 61 | 273 | 0.0 | 1.0 | 0.00 | 0.00 | 0.00 | 93 | 1017.3 |
| 20260904034824 | 62 | 272 | 0.0 | 0.0 | 0.00 | 0.00 | 0.00 | 93 | 1017.3 |
| 20260904033312 | 62 | 273 | 0.0 | 0.0 | 0.00 | 0.00 | 0.00 | 93 | 1017.4 |
| 20260904031819 | 62 | 273 | 0.0 | 0.0 | 0.00 | 0.00 | 0.00 | 93 | 1017.4 |
| 20260904030315 | 62 | 272 | 0.0 | 0.0 | 0.00 | 0.00 | 0.00 | 92 | 1017.2 |
| 20260904024824 | 62 | 273 | 0.0 | 0.0 | 0.00 | 0.00 | 0.00 | 92 | 1017.2 |
| 20260904023327 | 63 | 272 | 0.0 | 0.0 | 0.00 | 0.00 | 0.00 | 92 | 1017.2 |
| 20260904021817 | 63 | 272 | 0.0 | 0.0 | 0.00 | 0.00 | 0.00 | 92 | 1017.2 |
| 20260904020324 | 63 | 272 | 0.0 | 1.0 | 0.00 | 0.00 | 0.00 | 91 | 1017.0 |
| 20260904014817 | 63 | 272 | 0.0 | 0.0 | 0.00 | 0.00 | 0.00 | 91 | 1017.1 |
| 20260904013328 | 64 | 272 | 0.0 | 0.0 | 0.00 | 0.00 | 0.00 | 91 | 1017.1 |
| 20260904011813 | 64 | 272 | 0.0 | 0.0 | 0.00 | 0.00 | 0.00 | 90 | 1017.0 |
| 20260904010325 | 64 | 273 | 0.0 | 0.0 | 0.00 | 0.00 | 0.00 | 91 | 1017.1 |
| 20260904004815 | 64 | 272 | 0.0 | 0.0 | 0.00 | 0.00 | 0.00 | 90 | 1017.0 |
| 20260904003322 | 64 | 272 | 0.0 | 0.0 | 0.00 | 0.00 | 0.00 | 90 | 1017.0 |
| 20260904001813 | 65 | 273 | 0.0 | 0.0 | 0.00 | 0.00 | 0.00 | 90 | 1017.2 |
| 20260904000318 | 65 | 272 | 0.0 | 0.0 | 0.00 | 0.00 | 0.00 | 89 | 1017.3 |
| 20260903234826 | 65 | 272 | 0.0 | 0.0 | 0.00 | 0.00 | 0.00 | 89 | 1017.3 |
| 20260903233320 | 66 | 272 | 0.0 | 0.0 | 0.00 | 0.00 | 0.00 | 89 | 1017.4 |
| 20260903231815 | 66 | 272 | 0.0 | 0.0 | 0.00 | 0.00 | 0.00 | 89 | 1017.2 |
| 20260903230325 | 66 | 272 | 0.0 | 0.0 | 0.00 | 0.00 | 0.00 | 88 | 1017.2 |
| 20260903224815 | 66 | 272 | 0.0 | 0.0 | 0.00 | 0.00 | 0.00 | 89 | 1017.1 |
| 20260903223327 | 66 | 272 | 0.0 | 0.0 | 0.00 | 0.00 | 0.00 | 88 | 1017.2 |
| 20260903221814 | 67 | 272 | 0.0 | 0.0 | 0.00 | 0.00 | 0.00 | 88 | 1017.3 |
| 20260903220314 | 67 | 272 | 0.0 | 0.0 | 0.00 | 0.00 | 0.00 | 87 | 1017.3 |
| 20260903214824 | 67 | 272 | 0.0 | 0.0 | 0.00 | 0.00 | 0.00 | 87 | 1017.3 |
| 20260903213327 | 68 | 272 | 0.0 | 0.0 | 0.00 | 0.00 | 0.00 | 86 | 1017.2 |
| 20260903211828 | 68 | 273 | 0.0 | 0.0 | 0.00 | 0.00 | 0.00 | 86 | 1017.2 |
| 20260903204825 | 69 | 271 | 0.0 | 0.0 | 0.00 | 0.00 | 0.00 | 85 | 1017.1 |
| 20260903203314 | 70 | 271 | 0.0 | 2.0 | 0.00 | 0.00 | 0.00 | 83 | 1016.9 |
| 20260903201822 | 71 | 271 | 0.0 | 0.0 | 0.00 | 0.00 | 0.00 | 82 | 1016.9 |
| 20260903194819 | 72 | 271 | 1.0 | 2.0 | 0.00 | 0.00 | 0.00 | 80 | 1016.9 |
| 20260903193329 | 72 | 271 | 0.0 | 2.0 | 0.00 | 0.00 | 0.00 | 76 | 1016.7 |
| 20260903191819 | 73 | 271 | 0.0 | 2.0 | 0.00 | 0.00 | 0.00 | 74 | 1016.6 |
| 20260903184812 | 76 | 271 | 0.0 | 1.0 | 0.00 | 0.00 | 0.00 | 66 | 1016.3 |
| 20260903183317 | 77 | 270 | 0.0 | 1.0 | 0.00 | 0.00 | 0.00 | 63 | 1016.1 |
| 20260903181821 | 79 | 270 | 0.0 | 0.0 | 0.00 | 0.00 | 0.00 | 61 | 1015.9 |
| 20260903180312 | 80 | 270 | 0.0 | 0.0 | 0.00 | 0.00 | 0.00 | 63 | 1015.9 |
| 20260903174818 | 83 | 270 | 0.0 | 1.0 | 0.00 | 0.00 | 0.00 | 57 | 1015.7 |